Palmdale, CA

3:00 PM PDT on April 26, 2017 (GMT -0700)
Palmdale Af Plant 42

Weather History for KPMD - May, 2012

Change the Weather History Date:

Monday, May 21, 2012

  Actual Average Record
Temperature  
Mean Temperature 78 °F 69 °F  
Max Temperature 98 °F 85 °F 100 °F (2000)
Min Temperature 57 °F 54 °F 39 °F (1948)
Degree Days  
Heating Degree Days 0 2  
Month to date heating degree days 3 56  
Since 1 July heating degree days 2801 2906  
Cooling Degree Days 13 6  
Month to date cooling degree days 131 79  
Year to date cooling degree days 186 102  
Growing Degree Days 26 (Base 50)    
Moisture  
Dew Point 34 °F    
Average Humidity 24    
Maximum Humidity 40    
Minimum Humidity 7    
Precipitation  
Precipitation 0.00 in 0.00 in 0.12 in (1947)
Month to date precipitation 0.00 0.21  
Year to date precipitation 1.79 5.19  
Since 1 July precipitation 3.72  
Snow  
Snow 0.00 in - - ()
Month to date snowfall 0.0  
Since 1 July snowfall 0.0  
Snow Depth 0.00 in    
Sea Level Pressure  
Sea Level Pressure 29.90 in    
Wind  
Wind Speed 13 mph (WSW)    
Max Wind Speed 26 mph    
Max Gust Speed 32 mph    
Visibility 10 miles    
Events      
T = Trace of Precipitation, MM = Missing Value Source: NWS Daily Summary

Daily Weather History Graph

Daily Weather History Graph

Search for Another Location

Airport or City:

Trip Planner

Search our weather history database for the weather conditions in past years. The results will help you decide how hot, cold, wet, or windy it might be!

Date:

Astronomy

May. 21, 2012 Rise Set
Actual Time 5:45 AM PDT 7:53 PM PDT
Civil Twilight 5:16 AM PDT 8:21 PM PDT
Nautical Twilight 4:42 AM PDT 8:56 PM PDT
Astronomical Twilight 4:04 AM PDT 9:33 PM PDT
Moon 6:12 AM PDT (5/21) 8:46 PM PDT (5/21)
Length of Visible Light 15h 04m
Length of Day
14h 08m
New Moon, 1% of the Moon is Illuminated
May 21
New Moon
May 28
First Quarter
Jun 4
Full
Jun 11
Last Quarter
Jun 19
New

Hourly Weather History & Observations

Time (PDT) Temp. Dew Point Humidity Pressure Visibility Wind Dir Wind Speed Gust Speed Precip Events Conditions
12:53 AM 70.0 °F 33.1 °F 26% 29.91 in 10.0 mi South 4.6 mph - N/A   Clear
1:53 AM 66.9 °F 32.0 °F 27% 29.91 in 10.0 mi SSW 9.2 mph - N/A   Clear
2:53 AM 64.9 °F 30.9 °F 28% 29.90 in 10.0 mi SSW 8.1 mph - N/A   Clear
3:53 AM 63.0 °F 32.0 °F 31% 29.89 in 10.0 mi SSW 6.9 mph - N/A   Clear
4:53 AM 61.0 °F 34.0 °F 36% 29.89 in 10.0 mi SSE 3.5 mph - N/A   Clear
5:53 AM 57.9 °F 34.0 °F 41% 29.91 in 10.0 mi South 3.5 mph - N/A   Clear
6:53 AM 63.0 °F 34.0 °F 34% 29.92 in 10.0 mi Calm Calm - N/A   Clear
7:53 AM 73.9 °F 34.0 °F 23% 29.92 in 10.0 mi Calm Calm - N/A   Clear
8:53 AM 79.0 °F 30.0 °F 17% 29.92 in 10.0 mi Calm Calm - N/A   Clear
9:53 AM 84.9 °F 30.0 °F 14% 29.91 in 10.0 mi Calm Calm - N/A   Clear
10:53 AM 90.0 °F 32.0 °F 13% 29.90 in 10.0 mi NNW 5.8 mph - N/A   Clear
11:53 AM 93.9 °F 21.9 °F 7% 29.89 in 10.0 mi West 10.4 mph 17.3 mph N/A   Clear
12:53 PM 96.1 °F 24.1 °F 8% 29.89 in 10.0 mi WSW 19.6 mph 24.2 mph N/A   Clear
1:53 PM 96.1 °F 27.0 °F 9% 29.87 in 10.0 mi WSW 19.6 mph - N/A   Clear
2:53 PM 96.1 °F 25.0 °F 8% 29.87 in 10.0 mi West 21.9 mph 28.8 mph N/A   Clear
3:53 PM 93.9 °F 28.9 °F 10% 29.86 in 10.0 mi West 24.2 mph 28.8 mph N/A   Clear
4:53 PM 91.9 °F 37.0 °F 15% 29.86 in 10.0 mi WSW 19.6 mph 27.6 mph N/A   Clear
5:53 PM 90.0 °F 37.0 °F 15% 29.87 in 10.0 mi West 20.7 mph 26.5 mph N/A   Clear
6:53 PM 87.1 °F 39.0 °F 18% 29.88 in 10.0 mi WSW 18.4 mph - N/A   Clear
7:53 PM 81.0 °F 39.9 °F 23% 29.90 in 10.0 mi WNW 23.0 mph - N/A   Clear
8:53 PM 78.1 °F 43.0 °F 29% 29.92 in 10.0 mi West 19.6 mph - N/A   Clear
9:53 PM 77.0 °F 44.6 °F 32% 30.02 in 10.0 mi West 17.3 mph - N/A   Clear
10:53 PM 75.9 °F 45.0 °F 33% 29.93 in 10.0 mi WNW 19.6 mph 26.5 mph N/A   Clear
11:53 PM 72.0 °F 44.1 °F 37% 29.92 in 10.0 mi WSW 8.1 mph - N/A   Clear